Regional Weather Roundup
Issued by NWS Nashville, TN

Home | Current Version | Previous Version | Text Only | Print | Product List | Glossary On
Versions: 1 2 3 4 5 6 7 8 9 10 11 12 13 14 15 16 17 18 19 20 21 22 23 24 25 26 27 28 29 30 31 32 33 34 35 36 37 38 39 40 41 42 43 44 45 46 47 48 49 50
000
ASUS44 KOHX 282115
RWROHX
MIDDLE TENNESSEE HOURLY WEATHER ROUNDUP
NATIONAL WEATHER SERVICE NASHVILLE TN
300 PM CST WED JAN 28 2015

NOTE: "FAIR" INDICATES FEW OR NO CLOUDS BELOW 12,000 FEET WITH
NO SIGNIFICANT WEATHER AND/OR OBSTRUCTIONS TO VISIBILITY.

* THESE REPORTS ARE NOT UNDER NWS QUALITY CONTROL AND MAY NOT
  REPORT WEATHER SUCH AS PRECIPITATION AND FOG.


TNZ005>011-023>034-057-059-062>066-078-080-282200
...NORTHERN MIDDLE TENNESSEE...

CITY           SKY/WX    TMP DP  RH WIND       PRES   REMARKS
CLARKSVILLE    SUNNY     48  24  39 SE7       30.22F
CROSSVILLE     SUNNY     44  13  28 VRB3      30.22F
GALLATIN         N/A     47  22  37 SE8       30.24F
DICKSON        SUNNY     48  25  40 SE7       30.20F
LEBANON        SUNNY     48  19  31 SE3       30.22F
LIVINGSTON     SUNNY     46  21  37 SE3       30.22F
NASHVILLE      MOSUNNY   50  22  33 S5        30.24F
WEST NASHVILLE   N/A     48  23  37 SE5       30.24F
PORTLAND       SUNNY     45  18  33 S6        30.22F
SMYRNA         SUNNY     51  21  30 VRB5      30.24F
SPARTA         SUNNY     48  23  37 S5        30.22F
$$
TNZ056-058-060-061-075>077-079-093>097-282200
...SOUTHERN MIDDLE TENNESSEE...

CITY           SKY/WX    TMP DP  RH WIND       PRES   REMARKS
COLUMBIA       SUNNY     52  28  40 S6        30.21F
LEWISBURG      SUNNY     53  25  34 S7        30.23F
MCMINNVILLE    SUNNY     50  19  29 CALM      30.22F
MURFREESBORO   SUNNY     49  20  32 S6        30.23F
SHELBYVILLE    SUNNY     52  27  37 SE3       30.23F
TULLAHOMA      SUNNY     48  19  32 CALM      30.22F
WINCHESTER       N/A     52  21  30 MISG      30.23S
$$


...KEY TO REMARKS...
VSB - VISIBILITY IN MILES
WCI - WIND CHILL INDEX
HX  - HEAT INDEX




USA.gov is the U.S. government's official web portal to all federal, state and local government web resources and services.